Location: Asis
(14.1331°N, 120.9056°E)
Time: 08:39:53
(UTC+00:00)

Okean 1-7 - Pass Details

Date: 15 January 2026
Orbit: 566 x 588 km, 82.5° (Epoch: 8 February)

Event Time Altitude Azimuth Distance (km) Brightness Sun altitude
Rises 10:32:28 0° 166° (SSE) 2,775 6.5 -11.1°
Reaches altitude 10° 10:34:49 10° 155° (SSE) 1,874 5.5 -11.7°
Maximum altitude 10:38:30 32° 92° (E) 999 3.6 -12.5°
Enters shadow 10:41:22 15° 35° (NE) 1,590 4.7 -13.2°
